Regional Weather Roundup
Issued by NWS Charleston, SC

Home | Current Version | Previous Version | Text Only | Print | Product List | Glossary On
Versions: 1 2 3 4 5 6 7 8 9 10 11 12 13 14 15 16 17 18 19 20 21 22 23 24 25 26 27 28 29 30 31 32 33 34 35 36 37 38 39 40 41 42 43 44 45 46 47 48 49 50
000
ASUS42 KCHS 201325
RWRCHS

REGIONAL WEATHER ROUNDUP
NATIONAL WEATHER SERVICE CHARLESTON SC
900 AM EDT WED AUG 20 2014

NOTE: "FAIR" INDICATES FEW OR NO CLOUDS BELOW 12,000 FEET WITH NO
SIGNIFICANT WEATHER AND/OR OBSTRUCTIONS TO VISIBILITY.

NOT ALL STATIONS ARE QUALITY CONTROLLED BY THE NATIONAL
WEATHER SERVICE. USE DATA WITH CAUTION...ESPECIALLY
DEWPOINT OBSERVATIONS.

SCZ027-030-031-034>040-042>050-201400-
...SOUTH CAROLINA...

CITY           SKY/WX    TMP DP  RH WIND       PRES   REMARKS
N CHARLESTON   MOSUNNY   80  72  76 W7        29.98R
WATERFRONT PRK   N/A     81 N/A N/A W7          N/A
FORT JOHNSON   NOT AVBL
MOUNT PLEASANT FAIR      81  73  78 NW6       29.98R
JOHNS ISLAND   SUNNY     81  75  83 W8        29.99R
PINOPOLIS        N/A     79  73  83 W7        29.90R
MONCKS CORNER  NOT AVBL
SUMMERVILLE    FAIR      77  75  94 SW5       29.99S
BEAUFORT MCAS  MOSUNNY   79  72  79 NW8       30.00R
BEAUFORT ARPT  FAIR      79  73  83 W9        30.00R
HILTON HEAD IS SUNNY     79  73  83 SW14      30.01S
GEORGETOWN     NOT AVBL
WALTERBORO     SUNNY     81  79  94 NW6       30.00R
ORANGEBURG     SUNNY     78  71  79 W5        29.98R
BARNWELL       FAIR      79  73  83 W9        30.00R
AIKEN          FAIR      77  75  94 W7        30.03R
MANNING        FAIR      79  79 100 W5        29.98R
KINGSTREE      NOT AVBL
COLUMBIA       MOSUNNY   78  71  79 SW3       29.98R
SUMTER         SUNNY     78  73  85 W2        29.96R
FLORENCE       MOSUNNY   76  73  91 NW5       29.96R
MYRTLE BEACH   SUNNY     79  73  83 NW6       29.96R
N MYRTLE BEACH SUNNY     79  75  87 N3        29.95R

$$

GAZ063-065-086>088-099>101-113>116-118-119-134-136>141-150-201400-
...GEORGIA...

CITY           SKY/WX    TMP DP  RH WIND       PRES   REMARKS
SAVANNAH ARPT  MOSUNNY   78  71  79 W9        30.02R
HUNTER AAF     SUNNY     79  72  79 W10       30.00R
FORT STEWART   SUNNY     79  70  75 W12       30.01R
STATESBORO     NOT AVBL
SYLVANIA       SUNNY     78  75  90 W3        30.02R
CLAXTON        FAIR      79  75  89 W5        30.03R
THOMSON        SUNNY     81  77  88 NW5       30.07R
AUGUSTA-BUSH   SUNNY     79  72  79 W8        29.99R
AUGUSTA-DANIEL SUNNY     79  71  76 W8        30.01R
SWAINSBORO     FAIR      79  79 100 W8        30.04R
VIDALIA          N/A     77  72  83 W5        30.04R
ALMA           SUNNY     74  71  91 W3        30.05R
WAYCROSS       SUNNY     81  75  83 W7        30.06R
JESUP            N/A     81  73  78 W7        30.05R
BRUNSWICK      SUNNY     81  70  69 W8        30.05R
SAINT SIMONS   SUNNY     80  71  74 W8        30.04R

$$

SCZ027-028-034-036>038-045-046-048>050-GAZ119-141-201400-
...LAKE AND SUPPLEMENTAL COASTAL OBSERVATIONS...

STATION/POSITION TIME  TEMP    WIND        PRES    WAVE   SWELL
                       AIR SEA DIR/SP/G            HT/PER HT/PER/DIR
                 (UTC) (F)     (DEG/KT/KT) (MB)    (FT/S) (FT/S/D)
UPR LAKE MARION  NOT AVBL
WINYAH BAY       1300   78     280/  7     1014.0S
LAKE MURRAY      1300   76     330/  3/  6 1014.6S
ACE BASIN NERRS  1300   77     250/  4     1016.0R
FORT PULASKI     1300   78     270/ 10/ 13 1016.4R
SAPELO ISLAND    1300   80     270/  9     1017.0S

$$

ANZ835-935-AMZ111-154-330-350-352-354-374-450-454-472-201400-
...C-MAN AND BUOY OBSERVATIONS...

STATION/POSITION TIME  TEMP    WIND        PRES    WAVE   SWELL
                       AIR SEA DIR/SP/G            HT/PER HT/PER/DIR
                 (UTC) (F)     (DEG/KT/KT) (MB)    (FT/S) (FT/S/D)
FOLLY BEACH CMAN 1300   79     260/  7/  9 1015.7R
BUOY 41004       1300   81 83  250/ 14/ 16 1014.3R   4/ 6   2/ 9
BUOY 41008       1200   80 85  270/ 14/ 16 1015.9R   2/ 3   2/120/ 8
5E ST. MARYS GA  1300      81                N/A     2/ 2
FRYING PAN BUOY  NOT AVBL
BUOY 41025       1300   78     320/  8/ 10 1013.1R   2/ 8   2/150/ 8
CAPE LOOKOUT NC  1300   76     350/  7/  9 1013.9R
BUOY 41002       1149   82 81  240/ 19/ 23 1014.9R   6/ 6   2/120/10
BUOY 41010       1300   81 85  220/ 14/ 17 1017.9F   2/ 4   2/130/ 8
BUOY 41012       NOT AVBL
ST AUGUSTINE FL  1300   81     280/  6/  9 1019.0R
CAPERS NEARSHORE NOT AVBL
FRIPP NEARSHORE  NOT AVBL


$$


USA.gov is the U.S. government's official web portal to all federal, state and local government web resources and services.